DELTA 1 DEB, 21282

Orbit data source: Space-Track

DELTA 1 DEB, 21282 is space debris in SSO originally from a launch on Thu, 12 Jun 1975 UTC launched from the Air Force Western Test Range (AFWTR). Debris objects in space refer to the collection of defunct objects orbiting the Earth. Examples of debris include non-operational satellites, rocket bodies, and fragments generated from explosions, collisions, or faulty payload assembly.

Loading next visibility...
Identifier
21282, 1975-052T
Orbit
SSO
Country
Flag of USUS
Related business
Manufacturer
Unknown
Mission
Spacecraft
Bus & Motor
Unknown
Mass
Unknown
Launch date (UTC)
1975-06-12 (51 years ago)
Launch vehicle
Unknown
Launch site
Air Force Western Test Range (AFWTR)
Object type
Payload
Rocket body
Debris
Shape & HBR
Unknown shape, 0.1 m
Radar Cross Section
Medium (>0.1 m² and <1 m²)

Expand to show TLE details & history
Last TLE update: 2 days ago

TLE from 2 days ago
0 DELTA 1 DEB
1 21282U 75052T   26171.27012647  .00000019  00000-0  13841-3 0  9990
2 21282  99.8230 104.9419 0099052 279.0991 238.4218 13.24853849698275
Epoch: 2026-06-20T06:28Z
TLE epoch observation values (Epoch: 2026-06-20T06:28:58.927Z)
Latitude
23.09534°
Longitude
-76.57791°
Altitude
1,208.561 km
Speed
7.233 km/s
True Right ascension
19h 16m 37s
True Declination
22° 58' 44"
Sunlit
Object was in full shadow at epoch
Visualization orbit readout
Latitude
Unknown
Longitude
Unknown
Altitude
Unknown
Speed
Unknown
Apparent Right ascension
Unknown
Apparent Declination
Unknown
Sunlit
N/A
Visualization observer readout
Local Sidereal Time
13:01:31
Azimuth
Unknown
Elevation
Unknown
Doppler factor
Unknown
Orbital elements
Apogee altitude
1,238.28 km
Perigee altitude
1,088.876 km
Semi-major axis
7,541.715 km
Eccentricity
0.00991
Inclination
99.823°
RAAN
104.9419°
Arg. of periapsis
279.0991°
True anomaly
237.46109°
Mean anomaly
238.4218°
Eccentric anomaly
237.94082°
Mean motion
3.31389 °/min
Orbital period
108.63 mins
BSTAR
0.00013841
Loading maneuver chart data...
Computing Atmospheric mass density...
Loading historical data...
Loading historical data...
Loading historical data...
Loading historical data...
Loading historical data...
Loading historical data...
Loading historical data...

Documentation

Showing up to 5 results
|